W5HRH Weather Reports


Display with metric or nautical units.
time (UTC)temp
F
wind
direction
speed
MPH
gust
MPH
rain 1hr
in
rain 24hr
in
rain mn
in
humidity
%
barometer
mb
20260509164543 80 153 0.0 2.0 0.00 0.03 0.00 84 1012.3
20260509164045 80 153 0.0 2.0 0.00 0.03 0.00 84 1012.4
20260509163542 80 355 0.0 2.0 0.00 0.03 0.00 84 1012.3
20260509163101 80 355 0.0 2.0 0.00 0.03 0.00 85 1012.3
20260509162544 80 355 0.0 2.0 0.00 0.03 0.00 85 1012.3
20260509162041 80 355 0.0 1.0 0.00 0.03 0.00 86 1012.3
20260509161541 80 348 0.0 0.0 0.00 0.03 0.00 86 1012.3
20260509161043 80 350 0.0 2.0 0.00 0.03 0.00 86 1012.4
20260509160539 79 355 0.0 2.0 0.00 0.03 0.00 87 1012.5
20260509160037 79 74 0.0 0.0 0.00 0.03 0.00 87 1012.5
20260509155541 79 74 0.0 2.0 0.00 0.03 0.00 87 1012.5
20260509155035 79 72 0.0 2.0 0.00 0.03 0.00 88 1012.3
20260509154540 78 72 0.0 2.0 0.00 0.03 0.00 89 1012.3
20260509154033 78 126 0.0 2.0 0.00 0.03 0.00 90 1012.2
20260509153535 78 126 0.0 2.0 0.00 0.03 0.00 90 1012.3
20260509153034 78 126 0.0 2.0 0.00 0.03 0.00 90 1012.0
20260509152532 77 138 0.0 2.0 0.00 0.03 0.00 91 1012.3
20260509152032 77 138 0.0 2.0 0.00 0.03 0.00 91 1012.3
20260509151530 77 138 0.0 1.0 0.00 0.03 0.00 91 1012.3
20260509151029 77 138 0.0 1.0 0.00 0.03 0.00 92 1012.3
20260509150529 77 138 0.0 2.0 0.00 0.03 0.00 92 1012.3
20260509150028 77 138 0.0 2.0 0.00 0.03 0.00 93 1012.2
20260509145028 76 138 1.0 2.0 0.00 0.03 0.00 93 1011.9
20260509144526 76 42 0.0 2.0 0.00 0.03 0.00 94 1012.0
20260509144025 76 345 0.0 1.0 0.00 0.03 0.00 94 1012.0
20260509143528 76 345 0.0 0.0 0.00 0.03 0.00 95 1012.0
20260509143025 76 345 0.0 1.0 0.00 0.03 0.00 95 1011.8
20260509142524 76 345 0.0 1.0 0.00 0.03 0.00 95 1011.7
20260509142024 76 345 0.0 1.0 0.00 0.03 0.00 95 1011.7
20260509141536 76 345 0.0 1.0 0.00 0.03 0.00 95 1011.6
20260509141024 76 345 0.0 3.0 0.00 0.03 0.00 95 1011.5
20260509140523 76 345 1.0 3.0 0.00 0.03 0.00 95 1011.4
20260509140023 76 169 0.0 2.0 0.00 0.03 0.00 96 1011.5
20260509135523 76 165 0.0 2.0 0.00 0.03 0.00 96 1011.5
20260509135022 76 164 0.0 2.0 0.00 0.03 0.00 96 1011.6
20260509134522 76 171 0.0 2.0 0.00 0.03 0.00 96 1011.8
20260509134022 75 171 0.0 2.0 0.00 0.03 0.00 96 1011.6
20260509133524 75 171 0.0 0.0 0.00 0.03 0.00 96 1011.8
20260509133020 75 128 0.0 0.0 0.00 0.03 0.00 96 1012.1
20260509132520 75 123 0.0 0.0 0.00 0.03 0.00 96 1012.2
20260509132020 75 118 0.0 0.0 0.00 0.03 0.00 96 1012.6
20260509131522 75 118 0.0 0.0 0.00 0.03 0.00 96 1012.6
20260509131023 75 118 0.0 0.0 0.00 0.03 0.00 96 1012.6
20260509130517 75 118 0.0 0.0 0.00 0.03 0.00 96 1012.4
20260509130016 75 118 0.0 0.0 0.00 0.03 0.00 96 1012.3
20260509125518 75 118 0.0 0.0 0.00 0.03 0.00 96 1012.2
20260509125015 75 118 0.0 0.0 0.00 0.03 0.00 97 1012.2
20260509124516 75 118 0.0 0.0 0.00 0.03 0.00 97 1012.3
20260509124015 75 117 0.0 0.0 0.00 0.03 0.00 97 1012.1
20260509123515 74 116 0.0 0.0 0.00 0.03 0.00 96 1012.1
20260509123014 74 116 0.0 0.0 0.00 0.03 0.00 96 1012.0
20260509122514 74 115 0.0 0.0 0.00 0.03 0.00 96 1012.1
20260509122014 74 115 0.0 0.0 0.00 0.03 0.00 96 1012.1
20260509121516 74 115 0.0 0.0 0.00 0.03 0.00 96 1012.1
20260509121014 74 115 0.0 0.0 0.00 0.03 0.00 96 1011.9
20260509120514 74 115 0.0 0.0 0.00 0.03 0.00 96 1011.9
20260509120014 74 115 0.0 0.0 0.00 0.03 0.00 96 1011.8
20260509115513 74 115 0.0 0.0 0.00 0.03 0.00 96 1011.8
20260509115020 74 115 0.0 0.0 0.00 0.03 0.00 96 1011.8
20260509114513 74 115 0.0 0.0 0.00 0.03 0.00 96 1011.8
20260509114013 74 115 0.0 0.0 0.00 0.03 0.00 96 1011.9
20260509113513 74 115 0.0 0.0 0.00 0.03 0.00 96 1012.1
20260509113013 74 115 0.0 0.0 0.00 0.03 0.00 96 1012.0
20260509112512 74 115 0.0 2.0 0.00 0.03 0.00 96 1011.9
20260509112012 74 115 0.0 2.0 0.00 0.03 0.00 96 1012.0
20260509111516 74 115 0.0 2.0 0.00 0.03 0.00 96 1012.1
20260509111017 74 115 0.0 2.0 0.00 0.03 0.00 96 1012.0
20260509110513 74 161 0.0 0.0 0.00 0.03 0.00 96 1012.1
20260509110014 74 161 0.0 0.0 0.00 0.03 0.00 96 1011.9
20260509105512 74 161 0.0 0.0 0.00 0.03 0.00 96 1011.6
20260509105011 74 161 0.0 0.0 0.00 0.03 0.00 96 1011.5
20260509104524 74 161 0.0 0.0 0.00 0.03 0.00 96 1011.4
20260509104011 74 161 0.0 0.0 0.00 0.03 0.00 96 1011.2
20260509103511 74 161 0.0 2.0 0.00 0.03 0.00 96 1011.2
20260509103011 74 161 0.0 2.0 0.00 0.03 0.00 96 1011.3
20260509102513 74 161 0.0 2.0 0.00 0.03 0.00 96 1011.4
20260509102010 74 161 0.0 0.0 0.00 0.03 0.00 95 1011.4
20260509101511 74 161 0.0 0.0 0.00 0.03 0.00 95 1011.3
20260509101010 74 161 0.0 0.0 0.00 0.03 0.00 95 1011.2
20260509100510 74 161 0.0 0.0 0.00 0.03 0.00 95 1011.2
20260509100017 74 161 0.0 0.0 0.00 0.03 0.00 95 1011.1
20260509095510 74 161 0.0 0.0 0.00 0.03 0.00 95 1011.0
20260509095009 74 161 0.0 0.0 0.00 0.03 0.00 95 1011.1
20260509094509 74 161 0.0 0.0 0.00 0.03 0.00 95 1011.0
20260509094009 74 161 0.0 0.0 0.00 0.03 0.00 95 1011.1
20260509093510 74 161 0.0 0.0 0.00 0.03 0.00 95 1011.0
20260509093009 74 161 0.0 0.0 0.00 0.03 0.00 95 1011.2
20260509092508 74 161 0.0 0.0 0.00 0.03 0.00 95 1011.2
20260509092008 75 161 0.0 0.0 0.00 0.03 0.00 95 1011.2
20260509091508 75 161 0.0 0.0 0.00 0.03 0.00 95 1011.4
20260509091008 74 161 0.0 0.0 0.00 0.03 0.00 95 1011.5
20260509090508 74 161 0.0 0.0 0.00 0.03 0.00 95 1011.4
20260509090008 75 161 0.0 0.0 0.00 0.03 0.00 95 1011.5
20260509085507 75 161 0.0 0.0 0.00 0.03 0.00 95 1011.4
20260509085007 75 161 0.0 0.0 0.00 0.03 0.00 95 1011.4
20260509084508 75 161 0.0 1.0 0.00 0.03 0.00 95 1011.3
20260509084007 75 161 0.0 1.0 0.00 0.03 0.00 95 1011.2
20260509083509 75 161 0.0 3.0 0.00 0.03 0.00 95 1011.3
20260509083008 75 161 0.0 4.0 0.00 0.03 0.00 95 1011.2
20260509082508 75 168 1.0 4.0 0.00 0.03 0.00 95 1011.1
20260509082007 75 180 1.0 5.0 0.00 0.03 0.00 95 1011.1
20260509081507 75 164 1.0 3.0 0.00 0.03 0.00 95 1011.2
20260509081007 75 172 0.0 2.0 0.00 0.03 0.00 95 1011.3
20260509080506 75 173 0.0 3.0 0.00 0.03 0.00 95 1011.3
20260509080006 75 176 0.0 4.0 0.00 0.03 0.00 95 1011.2
20260509075506 75 167 0.0 3.0 0.00 0.03 0.00 95 1011.2
20260509075005 75 212 0.0 5.0 0.00 0.03 0.00 95 1011.2
20260509074506 75 156 1.0 5.0 0.00 0.03 0.00 95 1011.1
20260509074007 75 178 1.0 4.0 0.00 0.03 0.00 95 1011.1
20260509073504 75 147 2.0 7.0 0.00 0.03 0.00 95 1011.2
20260509073006 75 159 1.0 7.0 0.00 0.03 0.00 95 1011.3
20260509072503 74 150 2.0 5.0 0.00 0.03 0.00 95 1011.4
20260509072000 74 159 1.0 5.0 0.00 0.03 0.00 95 1011.4
20260509071601 74 113 0.0 2.0 0.00 0.03 0.00 95 1011.6
20260509071100 74 111 0.0 1.0 0.00 0.03 0.00 95 1011.7
20260509070600 74 111 0.0 1.0 0.00 0.03 0.00 95 1011.7
20260509070104 74 111 0.0 1.0 0.00 0.03 0.00 95 1011.5
20260509065559 74 111 0.0 0.0 0.00 0.03 0.00 95 1011.7
20260509065059 74 111 0.0 1.0 0.00 0.03 0.00 95 1011.6
20260509064559 74 111 0.0 2.0 0.00 0.03 0.00 95 1011.6
20260509064059 74 111 0.0 2.0 0.00 0.03 0.00 95 1011.6
20260509063558 74 111 0.0 0.0 0.00 0.03 0.00 95 1011.7
20260509063102 74 111 0.0 0.0 0.00 0.03 0.00 95 1011.7
20260509062556 74 111 0.0 0.0 0.00 0.03 0.00 95 1011.8
20260509062054 74 111 0.0 1.0 0.00 0.03 0.00 94 1011.9
20260509061606 74 111 0.0 0.0 0.00 0.03 0.00 95 1011.8
20260509061053 74 111 0.0 0.0 0.00 0.03 0.00 95 1011.8
20260509060553 74 111 0.0 0.0 0.00 0.03 0.00 95 1011.7
20260509060051 74 111 0.0 0.0 0.00 0.03 0.00 95 1011.8
20260509055553 74 111 0.0 0.0 0.00 0.03 0.00 95 1011.9
20260509055047 74 111 0.0 0.0 0.00 0.03 0.00 94 1012.0
20260509054555 74 111 0.0 0.0 0.00 0.03 0.00 94 1012.0
20260509054044 74 111 0.0 1.0 0.00 0.03 0.00 94 1011.9
20260509053544 74 111 0.0 1.0 0.00 0.03 0.00 94 1011.9
20260509053055 74 111 0.0 1.0 0.00 0.03 0.00 94 1012.0
20260509052542 74 111 0.0 1.0 0.00 0.03 0.00 94 1012.0
20260509052038 74 111 0.0 3.0 0.00 0.03 0.00 94 1012.0
20260509051537 74 111 0.0 3.0 0.00 0.03 0.00 94 1012.0
20260509051036 74 113 0.0 3.0 0.00 0.03 0.00 94 1012.2
20260509050535 74 105 0.0 2.0 0.00 0.03 0.00 94 1012.0
20260509050033 74 105 0.0 1.0 0.00 0.03 0.00 94 1012.2
20260509045532 74 105 0.0 0.0 0.00 0.03 0.03 94 1012.1
20260509045029 74 105 0.0 2.0 0.00 0.03 0.03 94 1012.2
20260509044533 74 105 0.0 2.0 0.00 0.03 0.03 94 1012.2
20260509044027 74 105 0.0 3.0 0.00 0.03 0.03 94 1012.3
20260509043526 74 130 0.0 2.0 0.00 0.03 0.03 94 1012.2
20260509043025 74 131 0.0 2.0 0.00 0.03 0.03 94 1012.1
20260509042523 74 132 0.0 2.0 0.00 0.03 0.03 94 1012.1
20260509042022 74 136 0.0 3.0 0.00 0.03 0.03 94 1012.3
20260509041522 74 136 0.0 3.0 0.00 0.03 0.03 94 1012.3
20260509041022 74 146 0.0 1.0 0.00 0.03 0.03 94 1012.2
20260509040522 74 150 0.0 3.0 0.00 0.03 0.03 94 1012.1
20260509040022 74 150 1.0 3.0 0.00 0.03 0.03 94 1011.9
20260509035522 74 111 0.0 2.0 0.00 0.03 0.03 94 1011.8
20260509035021 74 112 0.0 2.0 0.00 0.03 0.03 94 1011.8
20260509034521 74 113 0.0 2.0 0.00 0.03 0.03 94 1011.7
20260509034022 74 113 0.0 1.0 0.00 0.03 0.03 94 1011.8
20260509033519 74 113 0.0 3.0 0.00 0.03 0.03 94 1011.8
20260509033019 74 146 0.0 4.0 0.00 0.03 0.03 94 1011.7
20260509032519 74 117 0.0 3.0 0.00 0.03 0.03 93 1011.8
20260509032023 74 96 0.0 4.0 0.00 0.03 0.03 93 1011.8
20260509031519 74 122 0.0 4.0 0.00 0.03 0.03 93 1011.9
20260509031018 74 102 0.0 4.0 0.00 0.03 0.03 93 1011.7
20260509030521 74 110 0.0 3.0 0.00 0.03 0.03 93 1011.6
20260509030019 74 96 0.0 3.0 0.00 0.03 0.03 93 1011.7
20260509025517 74 126 0.0 6.0 0.00 0.03 0.03 93 1011.8
20260509025016 74 98 1.0 6.0 0.00 0.03 0.03 93 1011.7
20260509024518 74 76 1.0 6.0 0.00 0.03 0.03 93 1011.6
20260509024014 74 103 0.0 4.0 0.00 0.03 0.03 93 1011.5
20260509023514 74 97 0.0 6.0 0.00 0.03 0.03 93 1011.4
20260509023012 74 107 3.0 6.0 0.00 0.03 0.03 93 1011.6
20260509022517 74 75 0.0 4.0 0.00 0.03 0.03 93 1011.6
20260509022009 74 55 1.0 4.0 0.00 0.03 0.03 92 1011.3
20260509021511 74 61 1.0 4.0 0.00 0.03 0.03 92 1010.9
20260509021007 74 103 1.0 4.0 0.00 0.03 0.03 92 1011.1
20260509020509 74 118 0.0 4.0 0.00 0.03 0.03 92 1011.1
20260509020003 74 84 1.0 4.0 0.00 0.03 0.03 92 1011.2
20260509015502 74 104 1.0 4.0 0.00 0.03 0.03 92 1011.2
20260509015100 74 101 1.0 4.0 0.00 0.03 0.03 92 1011.2
20260509014559 74 109 0.0 7.0 0.00 0.03 0.03 92 1011.1
20260509014057 74 128 0.0 7.0 0.00 0.03 0.03 92 1011.0
20260509013556 74 127 2.0 6.0 0.00 0.03 0.03 92 1010.9
20260509013054 74 58 1.0 6.0 0.00 0.03 0.03 92 1010.9
20260509012554 74 89 0.0 7.0 0.00 0.03 0.03 92 1010.8
20260509012054 74 87 1.0 7.0 0.00 0.03 0.03 92 1011.0
20260509011551 74 92 0.0 5.0 0.00 0.03 0.03 92 1010.8
20260509011049 74 157 0.0 6.0 0.00 0.03 0.03 92 1011.0
20260509010548 74 117 1.0 6.0 0.00 0.03 0.03 92 1010.9
20260509010047 74 87 0.0 2.0 0.00 0.03 0.03 92 1011.0
20260509005545 74 85 0.0 3.0 0.00 0.03 0.03 92 1010.9
20260509005042 74 90 0.0 4.0 0.00 0.03 0.03 92 1010.7
20260509004541 74 150 1.0 3.0 0.00 0.03 0.03 92 1010.9
20260509004039 74 109 0.0 5.0 0.00 0.03 0.03 92 1010.8
20260509003538 74 112 0.0 5.0 0.00 0.03 0.03 92 1010.9
20260509003040 74 107 1.0 4.0 0.00 0.03 0.03 92 1010.7
20260509002539 74 80 0.0 4.0 0.00 0.03 0.03 92 1010.8
20260509002033 74 84 1.0 3.0 0.00 0.03 0.03 92 1010.8
20260509001532 74 72 1.0 8.0 0.00 0.03 0.03 92 1010.8
20260509001030 74 88 2.0 8.0 0.00 0.03 0.03 92 1010.7
20260509000529 74 35 2.0 8.0 0.00 0.03 0.03 92 1010.8
20260509000027 74 113 1.0 5.0 0.00 0.03 0.03 92 1010.9
20260508235527 74 76 1.0 3.0 0.00 0.03 0.03 92 1010.7
20260508235025 74 35 1.0 6.0 0.00 0.03 0.03 92 1010.8
20260508234524 74 85 1.0 6.0 0.00 0.03 0.03 92 1010.9
20260508234022 74 88 0.0 4.0 0.00 0.03 0.03 92 1010.9
20260508233521 74 89 2.0 4.0 0.00 0.03 0.03 92 1011.0
20260508233021 74 119 1.0 3.0 0.00 0.03 0.03 92 1011.1
20260508232517 73 88 0.0 6.0 0.00 0.03 0.03 92 1011.1
20260508232016 73 83 2.0 6.0 0.00 0.03 0.03 92 1011.1
20260508231516 74 69 1.0 3.0 0.00 0.03 0.03 92 1011.2
20260508231014 73 165 1.0 3.0 0.00 0.03 0.03 92 1011.1
20260508230513 73 78 0.0 3.0 0.00 0.03 0.03 92 1011.0
20260508230011 73 65 0.0 4.0 0.00 0.03 0.03 92 1010.9
20260508225512 73 82 1.0 4.0 0.00 0.03 0.03 92 1010.9
20260508225008 73 105 0.0 3.0 0.00 0.03 0.03 92 1010.9
20260508224506 73 101 0.0 3.0 0.00 0.03 0.03 92 1010.9
20260508224004 73 148 0.0 3.0 0.00 0.03 0.03 92 1011.0
20260508223503 73 154 0.0 3.0 0.00 0.03 0.03 92 1011.0
20260508223005 73 72 1.0 4.0 0.00 0.03 0.03 92 1011.0
20260508222600 73 94 1.0 6.0 0.00 0.03 0.03 92 1011.0
20260508222059 73 94 1.0 6.0 0.00 0.03 0.03 92 1011.0
20260508221559 73 42 1.0 4.0 0.00 0.03 0.03 92 1011.1
20260508221056 73 78 1.0 4.0 0.00 0.03 0.03 92 1011.0
20260508220556 73 129 0.0 4.0 0.00 0.03 0.03 92 1011.2
20260508220056 73 125 0.0 7.0 0.00 0.03 0.03 92 1011.2
20260508215553 73 81 1.0 7.0 0.00 0.03 0.03 92 1011.2
20260508215051 73 105 0.0 4.0 0.00 0.03 0.03 92 1011.2
20260508214619 73 117 1.0 4.0 0.00 0.03 0.03 93 1011.1
20260508214052 72 117 0.0 3.0 0.00 0.03 0.03 93 1011.2
20260508213546 72 90 0.0 6.0 0.00 0.03 0.03 93 1011.3
20260508213050 72 56 1.0 6.0 0.00 0.03 0.03 93 1011.4
20260508212543 72 154 0.0 3.0 0.00 0.03 0.03 93 1011.5
20260508212046 72 125 0.0 3.0 0.00 0.03 0.03 93 1011.5
20260508211543 72 103 0.0 3.0 0.00 0.03 0.03 93 1011.7
20260508211039 72 99 1.0 3.0 0.00 0.03 0.03 93 1011.6
20260508210541 72 111 0.0 3.0 0.00 0.03 0.03 93 1011.5
20260508210037 72 117 1.0 3.0 0.00 0.03 0.03 93 1011.5
20260508205535 72 109 0.0 3.0 0.00 0.03 0.03 93 1011.5
20260508205034 72 146 0.0 3.0 0.00 0.03 0.03 93 1011.5
20260508204533 72 142 0.0 3.0 0.00 0.03 0.03 94 1011.6
20260508204030 72 85 0.0 6.0 0.00 0.03 0.03 94 1011.8
20260508203529 72 151 2.0 5.0 0.01 0.03 0.03 94 1011.6
20260508203128 72 105 2.0 6.0 0.01 0.03 0.03 95 1011.7
20260508202526 72 129 2.0 6.0 0.01 0.03 0.03 95 1011.6
20260508202025 71 63 0.0 3.0 0.01 0.03 0.03 95 1011.8
20260508201524 71 93 0.0 3.0 0.01 0.03 0.03 95 1011.6
20260508201022 71 155 0.0 2.0 0.02 0.03 0.03 95 1012.0
20260508200522 71 76 0.0 6.0 0.03 0.03 0.03 95 1012.2
20260508200021 71 78 2.0 6.0 0.03 0.03 0.03 95 1012.1
20260508195521 71 119 1.0 4.0 0.03 0.03 0.03 95 1012.1
20260508195020 70 100 0.0 3.0 0.03 0.03 0.03 94 1012.3
20260508194519 70 69 0.0 0.0 0.03 0.03 0.03 95 1012.5
20260508194018 70 340 0.0 3.0 0.03 0.03 0.03 94 1012.7
20260508193520 70 165 0.0 3.0 0.02 0.02 0.02 94 1012.8
20260508193019 70 209 0.0 3.0 0.02 0.02 0.02 95 1012.6
20260508192518 70 140 0.0 3.0 0.02 0.02 0.02 94 1012.7
20260508192018 70 140 1.0 4.0 0.02 0.02 0.02 94 1012.7
20260508191533 69 82 1.0 4.0 0.02 0.02 0.02 94 1012.7
20260508191017 69 167 2.0 5.0 0.01 0.01 0.01 94 1012.8
20260508190517 70 138 1.0 4.0 0.00 0.00 0.00 94 1012.7
20260508190026 69 127 0.0 4.0 0.00 0.00 0.00 94 1012.7
20260508185516 69 99 1.0 6.0 0.00 0.00 0.00 93 1012.7
20260508185015 69 130 1.0 6.0 0.00 0.00 0.00 93 1012.7
20260508184518 69 71 1.0 6.0 0.00 0.00 0.00 93 1012.7
20260508184014 69 127 1.0 5.0 0.00 0.00 0.00 93 1012.7
20260508183516 69 101 1.0 6.0 0.00 0.00 0.00 93 1012.8
20260508183013 69 148 1.0 6.0 0.00 0.00 0.00 93 1012.7
20260508182514 69 163 2.0 6.0 0.00 0.00 0.00 93 1012.8
20260508182012 69 144 0.0 4.0 0.00 0.00 0.00 93 1013.0
20260508181511 69 149 0.0 4.0 0.00 0.00 0.00 93 1013.1
20260508181010 69 94 2.0 4.0 0.00 0.00 0.00 93 1013.2
20260508180511 69 67 1.0 3.0 0.00 0.00 0.00 93 1013.3
20260508180009 69 106 0.0 5.0 0.00 0.00 0.00 93 1013.3
20260508175512 69 37 1.0 5.0 0.00 0.00 0.00 93 1013.5
20260508175009 69 70 2.0 6.0 0.00 0.00 0.00 92 1013.4
20260508174508 69 57 1.0 8.0 0.00 0.00 0.00 93 1013.5
20260508174008 69 78 1.0 8.0 0.00 0.00 0.00 93 1013.4
20260508173508 69 166 1.0 4.0 0.00 0.00 0.00 92 1013.3
20260508173006 69 135 1.0 4.0 0.00 0.00 0.00 92 1013.5
20260508172506 69 108 0.0 8.0 0.00 0.00 0.00 92 1013.5
20260508172010 69 81 1.0 8.0 0.00 0.00 0.00 92 1013.5
20260508171505 69 106 1.0 4.0 0.00 0.00 0.00 91 1013.6
20260508171005 69 62 0.0 4.0 0.00 0.00 0.00 91 1014.1
20260508170505 69 79 1.0 4.0 0.00 0.00 0.00 91 1014.1
20260508170008 69 109 0.0 7.0 0.00 0.00 0.00 90 1014.0
20260508165505 69 90 1.0 7.0 0.00 0.00 0.00 90 1014.1
20260508165004 69 35 1.0 7.0 0.00 0.00 0.00 90 1014.3